Location: Burgerwiesen
(48.6500°N, 15.6167°E)
Time: 10:13:53
(UTC+00:00)

STARLINK-1227 - Pass Details

Date: 09 April 2020
Orbit: 375 x 384 km, 53.0° (Epoch: 26 May)

Event Time Altitude Azimuth Distance (km) Brightness Sun altitude
Rises 18:12:50 0° 295° (WNW) 2,268 9.4 -5.9°
Reaches altitude 10° 18:14:53 10° 297° (WNW) 1,413 7.5 -6.3°
Maximum altitude 18:18:03 72° 22° (NNE) 409 3.0 -6.7°
Drops below altitude 10° 18:21:12 10° 108° (ESE) 1,411 5.0 -7.2°
Enters shadow 18:21:14 10° 108° (ESE) 1,427 5.0 -7.2°
